Date,TemperatureHighF,TemperatureAvgF,TemperatureLowF,DewpointHighF,DewpointAvgF,DewpointLowF,HumidityHigh,HumidityAvg,HumidityLow,PressureMaxIn,PressureMinIn,WindSpeedMaxMPH,WindSpeedAvgMPH,GustSpeedMaxMPH,PrecipitationSumIn
2013-3-1,40.7,35.2,33.1,30.7,29.1,27.3,88,79,63,29.36,29.25,15,4,15,0.01
2013-3-2,34.2,27.4,24.1,23.0,19.5,17.3,76,72,62,29.42,29.36,14,7,14,0.00
2013-3-3,31.0,24.9,20.5,20.9,16.4,12.5,77,70,62,29.41,29.33,18,6,18,0.00
2013-3-4,31.0,27.2,23.8,22.3,19.5,17.5,83,73,63,29.55,29.37,24,11,24,0.07
2013-3-5,40.7,31.9,26.8,25.3,22.7,20.1,83,69,53,29.72,29.55,18,6,22,0.00
2013-3-6,41.6,33.7,26.8,31.0,25.2,22.0,86,72,58,29.76,29.66,15,4,15,0.00
2013-3-7,37.3,32.8,28.8,29.3,24.8,20.4,92,73,53,29.80,29.73,18,6,18,0.00
2013-3-8,41.2,31.9,27.7,34.3,27.6,23.0,93,84,68,29.93,29.73,19,6,19,0.06
2013-3-9,50.2,36.1,22.7,24.9,21.6,17.3,82,58,32,29.98,29.90,15,3,15,0.00
2013-3-10,53.8,40.3,26.3,30.4,24.9,16.2,70,55,39,29.99,29.82,12,4,12,0.00
2013-3-11,46.4,41.0,33.7,40.3,33.7,27.8,84,75,67,29.88,29.61,22,6,22,0.00
2013-3-12,51.5,46.1,36.4,48.6,42.1,29.8,90,86,76,29.63,29.33,21,7,21,0.74
2013-3-13,43.9,36.1,31.1,30.2,25.8,21.8,83,67,44,29.52,29.42,15,4,15,0.00
2013-3-14,31.1,29.2,25.4,23.5,16.9,11.6,73,60,53,29.55,29.47,18,6,18,0.01
2013-3-15,38.3,29.8,17.5,28.8,18.8,7.7,88,63,48,29.58,29.30,21,6,21,0.00
2013-3-16,34.6,26.5,20.0,21.2,15.2,11.0,70,63,40,29.56,29.39,14,4,16,0.00
2013-3-17,32.0,25.2,16.2,14.3,9.3,5.0,72,52,37,29.95,29.55,13,6,13,0.00
2013-3-18,38.2,26.5,14.9,21.8,9.6,2.3,82,51,31,30.07,29.74,10,3,10,0.00
2013-3-19,43.0,31.3,26.1,34.3,26.2,20.6,91,81,69,29.71,29.35,7,2,7,0.16
2013-3-20,39.4,28.7,22.0,20.4,18.1,15.6,81,66,45,29.46,29.41,13,5,13,0.07
2013-3-21,35.5,26.9,15.5,16.8,11.5,7.6,73,54,35,29.45,29.29,10,4,10,0.02
2013-3-22,37.1,28.2,19.8,25.9,17.2,8.0,79,63,52,29.46,29.32,12,4,12,0.00
2013-3-23,38.5,32.7,29.2,23.9,21.0,18.6,79,63,48,29.54,29.42,24,9,24,0.01
2013-3-24,42.1,35.0,30.4,22.7,20.9,19.8,66,57,45,29.55,29.40,12,5,12,0.00
2013-3-25,44.3,35.5,27.4,26.0,23.6,20.4,76,63,48,29.42,29.17,12,4,12,0.00
2013-3-26,45.5,38.5,33.8,27.9,23.6,17.6,74,56,37,29.50,29.26,10,3,10,0.00
2013-3-27,48.6,40.1,34.4,28.2,25.1,18.4,67,56,42,29.53,29.47,14,7,14,0.00